Location: Brompton
(51.4000°N, 0.5333°E)
Time: 11:38:41
(UTC+00:00)

Cosmos 1898 Rocket - Pass Details

Date: 25 September 2021
Orbit: 752 x 784 km, 74.0° (Epoch: 17 October)

Event Time Altitude Azimuth Distance (km) Brightness Sun altitude
Rises 04:54:08 0° 339° (NNW) 3,263 6.6 -9.3°
Reaches altitude 10° 04:56:51 10° 350° (N) 2,337 6.0 -8.9°
Maximum altitude 05:01:26 29° 50° (NE) 1,420 5.7 -8.2°
Drops below altitude 10° 05:06:00 10° 110° (ESE) 2,339 7.1 -7.5°
Sets 05:08:43 0° 121° (ESE) 3,266 7.7 -7.1°
